Tracking 31080 objects as of 20-Jul-2025
HD Live streaming from Space Station
objects crossing your sky now

COSMOS 1174 DEB

Track COSMOS 1174 DEB now!
10-day predictions


NORAD ID: 12354
Int'l Code: 1980-030Y
Perigee: 395.2 km
Apogee: 827.4 km
Inclination: 66.1 °
Period: 96.8 minutes
Semi major axis: 6982 km
RCS: 0.107 m2 (medium)
Launch date: April 18, 1980
Source: Commonwealth of Independent States (former USSR) (CIS)
Launch site: TYURATAM MISSILE AND SPACE COMPLEX (TTMTR)

Note: This is SATELLITE DEBRIS
Your satellite tracking list
Your tracking list is empty




NASA's NSSDC Master Catalog

Two Line Element Set (TLE):
1 12354U 80030Y   25201.09368788  .00008090  00000-0  36317-3 0  9995
2 12354  66.1023 103.9124 0309483  88.4383 275.2162 14.87999170351522
Source of the keplerian elements: AFSPC